Location: NJAA Observatory
(40.6819°N, 74.8979°W)
Time: 01:24:16
(UTC-04:00)

Transit 2A Rocket - Visible Passes

Search period start: 31 March 2015 00:00
Search period end: 10 April 2015 00:00
Orbit: 585 x 922 km, 66.7° (Epoch: 29 March)

Date Brightness Start Highest point End Pass type
(mag) Time Alt. Az. Time Alt. Az. Time Alt. Az.
31 Mar 7.6 02:29:05 17° ENE 02:29:05 17° ENE 02:31:02 10° ENE visible
31 Mar 5.5 04:09:02 59° NW 04:09:02 59° NW 04:14:44 10° NNE visible
31 Mar 7.3 05:49:34 10° WNW 05:52:46 14° NW 05:55:49 10° N visible
01 Apr 6.0 03:28:11 51° NNE 03:28:11 51° NNE 03:32:43 10° NNE visible
01 Apr 6.9 05:08:07 17° WNW 05:10:09 20° NW 05:14:30 10° N visible
02 Apr 6.9 02:47:16 31° NE 02:47:16 31° NE 02:50:32 10° NE visible
02 Apr 6.4 04:27:12 29° NW 04:27:39 29° NW 04:32:54 10° NNE visible
03 Apr 7.6 02:06:19 18° ENE 02:06:19 18° ENE 02:08:05 10° NE visible
03 Apr 6.2 03:46:16 40° NNW 03:46:16 40° NNW 03:51:08 10° NNE visible
03 Apr 7.5 05:28:04 10° NW 05:29:46 11° NNW 05:31:14 10° NNW visible
04 Apr 6.4 03:05:16 40° N 03:05:16 40° N 03:09:13 10° NNE visible
04 Apr 7.2 04:45:12 14° WNW 04:47:03 16° NW 04:50:31 10° N visible
05 Apr 7.0 02:24:14 29° NE 02:24:14 29° NE 02:27:09 10° NNE visible
05 Apr 6.9 04:04:10 22° NW 04:04:27 22° NW 04:09:06 10° N visible
06 Apr 7.5 01:43:10 19° NE 01:43:10 19° NE 01:44:54 10° NE visible
06 Apr 6.7 03:23:07 30° NNW 03:23:07 30° NNW 03:27:26 10° NNE visible
07 Apr 8.0 01:02:05 11° NE 01:02:05 11° NE 01:02:21 10° NE visible
07 Apr 6.7 02:42:00 33° N 02:42:00 33° N 02:45:37 10° NNE visible
07 Apr 7.5 04:21:55 11° NW 04:23:59 12° NNW 04:26:12 10° N visible
08 Apr 7.1 02:00:52 28° NNE 02:00:52 28° NNE 02:03:39 10° NNE visible
08 Apr 7.2 03:40:47 17° NW 03:41:17 17° NW 03:45:09 10° N visible
09 Apr 7.5 01:19:41 20° NE 01:19:41 20° NE 01:21:32 10° NE visible
09 Apr 7.0 02:59:36 24° NNW 02:59:36 24° NNW 03:03:38 10° N visible
